Flag for Germany Weather past 2 weeks in Rotenburg (Wümme), Lower Saxony, Germany

Now
31 °F

Overcast.


Feels Like: 31 °F
Forecast: 26 / 32 °F
Wind: 2 mph from Northwest

Location: Bremen

Current Time: Dec 26, 2014 at 4:53:37 AM

Latest Report: Dec 26, 2014 at 3:00 AM


Visibility: 22 mi

Pressure: 30.34 "Hg

Humidity: 90%

Dew point: 28 °F

Location of Rotenburg (Wümme)Location

Historic Weather in Rotenburg (Wümme) — Graph

°F

Rotenburg (Wümme) temperature yesterday

Maximum temperature yesterday: 44 °F (at 1:00 PM)
Minimum temperature yesterday: 36 °F (at 11:00 PM)
Average temperature yesterday: 41 °F

Past Weeks' High & Low Weather Summary

 TemperatureHumidityPressure
High54 °F (Dec 18, 8:00 PM)98% (Dec 13, 11:00 PM)30.34 "Hg (Dec 13, 11:00 PM)
Low31 °F (Dec 26, 3:00 AM)60% (Dec 25, 2:00 PM)29.23 "Hg (Dec 12, 12:00 PM)
Average43 °F88%29.81 "Hg
* Reported Dec 11 3:00 AM — Dec 26 3:00 AM, Rotenburg (Wümme), Weather by CustomWeather, © 2014

Note: Actual official high and low records may vary slightly from our data, if they occured in-between our weather recording intervals... More about our weather records

Advertising

Rotenburg (Wümme) weather history for previous 24 hours

 ConditionsComfort  
Time TempWeatherWind HumidityBarometerVisibility
3:00 AM
Dec 26
31 °FOvercast.2 mph90%30.34 "Hg22 mi
2:00 AM32 °FOvercast.2 mph87%30.33 "Hg22 mi
1:00 AM32 °FPassing clouds.1 mph79%30.32 "Hg22 mi
12:00 AM35 °FOvercast.3 mph73%30.31 "Hg22 mi
11:00 PM
Dec 25
36 °FOvercast.5 mph72%30.29 "Hg22 mi
9:00 PM37 °FOvercast.3 mph76%30.26 "Hg22 mi
8:00 PM37 °FOvercast.5 mph78%30.23 "Hg22 mi
7:00 PM37 °FRain. Low clouds.6 mph85%30.21 "Hg22 mi
6:00 PM38 °FPassing clouds.9 mph82%30.17 "Hg22 mi
5:00 PM39 °FPassing clouds.12 mph80%30.13 "Hg22 mi
3:00 PM43 °FPartly sunny.13 mph70%30.06 "Hg19 mi
2:00 PM44 °FScattered clouds.13 mph60%30.03 "Hg22 mi
1:00 PM44 °FPartly sunny.13 mph66%30.04 "Hg19 mi
12:00 PM43 °FPartly sunny.10 mph73%30.03 "Hg19 mi
11:00 AM43 °FPartly sunny.9 mph80%30.01 "Hg19 mi
9:00 AM43 °FLight rain. Partly sunny.10 mph83%29.97 "Hg19 mi
8:00 AM42 °FSprinkles. Overcast.8 mph88%29.95 "Hg12 mi
7:00 AM42 °FSprinkles. Overcast.13 mph86%29.93 "Hg16 mi
6:00 AM43 °FOvercast.12 mph81%29.93 "Hg25 mi
5:00 AM42 °FOvercast.10 mph83%29.94 "Hg25 mi
Weather by CustomWeather, © 2014

See weather overviewHow to use our weather pages